Weather reports worldwide

Advertisment
Bridgefoot, United Kingdom (99137): temperature & dewpoint: 18.06.2017 23:00:00 - 24.06.2017 23:00:00 (BST)Bridgefoot, United Kingdom (99137): temperature 5cm: 18.06.2017 23:00:00 - 24.06.2017 23:00:00 (BST)Bridgefoot, United Kingdom (99137): wind speed: 18.06.2017 23:00:00 - 24.06.2017 23:00:00 (BST)Bridgefoot, United Kingdom (99137): wind direction: 18.06.2017 23:00:00 - 24.06.2017 23:00:00 (BST)Bridgefoot, United Kingdom (99137): visibility: 18.06.2017 23:00:00 - 24.06.2017 23:00:00 (BST)Bridgefoot, United Kingdom (99137): precipitation: 18.06.2017 23:00:00 - 24.06.2017 23:00:00 (BST)
Date & Time tt [°C] td [°C] tt 5cm [°C] ff [km/h] ff [kn] dd vv [km] rr [mm]
24.06.2017 23:00:00 - - - - - - - 0,0
24.06.2017 22:00:00 13,8 7,7 - - - - - 0,0
24.06.2017 21:00:00 14,2 8,3 - - - - - 0,0
24.06.2017 20:00:00 14,6 8,5 - - - - - 0,0
24.06.2017 19:00:00 15,0 8,7 - - - - - 0,0
24.06.2017 18:00:00 15,2 10,2 - - - - - 0,0
24.06.2017 17:00:00 15,2 9,1 - - - - - 0,0
24.06.2017 16:00:00 16,2 9,1 - - - - - 0,0
24.06.2017 15:00:00 15,9 10,6 - - - - - 0,0
24.06.2017 14:00:00 16,1 11,6 - - - - - 0,0
24.06.2017 13:00:00 15,8 12,5 - - - - - 0,0
24.06.2017 12:00:00 14,6 11,4 - - - - - 0,0
24.06.2017 11:00:00 13,9 11,1 - - - - - 0,0
24.06.2017 10:00:00 13,4 10,3 - 34 18 N 27 0,0
24.06.2017 09:00:00 12,7 9,2 - - - - - 0,0
24.06.2017 08:00:00 13,1 9,6 - - - - - 0,0
24.06.2017 07:00:00 12,5 9,2 - - - - - 0,0
24.06.2017 06:00:00 12,1 7,6 - - - - - 0,0
24.06.2017 05:00:00 11,9 8,2 - - - - - 0,0
24.06.2017 04:00:00 11,8 9,5 - - - - - 0,0
24.06.2017 03:00:00 10,5 9,9 - - - - - 0,0
24.06.2017 02:00:00 10,4 9,3 - - - - - 0,0
24.06.2017 01:00:00 12,2 10,4 - - - - - 0,0
24.06.2017 00:00:00 13,2 12,0 - - - - - 0,0
23.06.2017 23:00:00 13,9 13,0 - - - - - 0,0
23.06.2017 22:00:00 13,8 12,9 - - - - 10 0,0
23.06.2017 21:00:00 13,7 12,9 - - - - - 0,0
23.06.2017 20:00:00 13,7 13,0 - - - - - 0,6
23.06.2017 19:00:00 14,2 13,3 - - - - - 0,0
23.06.2017 18:00:00 14,3 13,5 - - - - - 0,2
23.06.2017 17:00:00 14,3 13,6 - - - - - 0,4
23.06.2017 16:00:00 14,4 13,6 - - - - - 1,2
23.06.2017 15:00:00 15,3 13,6 - - - - - 0,0
23.06.2017 14:00:00 16,5 14,1 - - - - - 0,0
23.06.2017 13:00:00 16,3 14,0 - - - - - 0,0
23.06.2017 12:00:00 15,6 14,0 - - - - - 0,0
23.06.2017 11:00:00 14,5 13,1 - - - - - 0,0
23.06.2017 10:00:00 14,1 12,8 - 137 74 N 2,3 0,0
23.06.2017 09:00:00 13,8 12,7 - - - - - 0,0
23.06.2017 08:00:00 13,5 12,4 - - - - - 0,0
23.06.2017 07:00:00 13,0 12,4 - - - - - 4,2
23.06.2017 06:00:00 13,1 12,3 - - - - - 5,6
23.06.2017 05:00:00 13,4 11,7 - - - - - 0,8
23.06.2017 04:00:00 13,9 11,2 - - - - - 0,0
23.06.2017 03:00:00 13,5 11,6 - - - - - 0,0
23.06.2017 02:00:00 13,5 12,3 - - - - - 0,0
23.06.2017 01:00:00 14,0 11,9 - - - - - 0,0
23.06.2017 00:00:00 14,0 11,6 - - - - - 0,0
22.06.2017 23:00:00 13,6 11,0 - - - - - 0,0
22.06.2017 22:00:00 13,3 11,3 - - - - - 0,0
22.06.2017 21:00:00 13,9 11,4 - - - - - 0,0
22.06.2017 20:00:00 14,3 10,0 - - - - - 0,0
22.06.2017 19:00:00 14,9 10,0 - - - - - 0,0
22.06.2017 18:00:00 15,7 10,0 - - - - - 0,0
22.06.2017 17:00:00 16,2 10,3 - - - - - 0,0
22.06.2017 16:00:00 16,3 10,9 - - - - - 0,0
22.06.2017 15:00:00 16,4 11,6 - - - - - 0,0
22.06.2017 14:00:00 15,0 10,9 - - - - - 0,0
22.06.2017 13:00:00 14,8 11,4 - - - - - 0,0
22.06.2017 12:00:00 15,3 12,7 - - - - - 0,0
22.06.2017 11:00:00 15,4 12,9 - - - - - 0,0
22.06.2017 10:00:00 15,6 13,5 - 117 63 N 4,8 0,0
22.06.2017 09:00:00 15,1 13,7 - - - - - 0,0
22.06.2017 08:00:00 15,0 14,3 - - - - - 0,0
22.06.2017 07:00:00 14,9 14,4 - - - - - 0,0
22.06.2017 06:00:00 14,9 14,6 - - - - - 0,0
22.06.2017 05:00:00 14,6 14,3 - - - - - 0,0
22.06.2017 04:00:00 14,6 14,3 - - - - - 0,0
22.06.2017 03:00:00 14,6 14,3 - - - - - 0,0
22.06.2017 02:00:00 15,1 14,6 - - - - - 0,0
22.06.2017 01:00:00 15,6 14,7 - - - - - 0,0
22.06.2017 00:00:00 17,1 15,6 - - - - - 1,0
21.06.2017 23:00:00 18,3 16,0 - - - - - 0,4
21.06.2017 22:00:00 19,1 16,2 - - - - - 0,0
21.06.2017 21:00:00 21,2 16,9 - - - - - 0,0
21.06.2017 20:00:00 23,3 18,1 - - - - - 0,0
21.06.2017 19:00:00 25,0 18,2 - - - - - 0,0
21.06.2017 18:00:00 26,6 18,9 - - - - - 0,0
21.06.2017 17:00:00 27,1 17,3 - - - - - 0,0
21.06.2017 16:00:00 25,5 15,4 - - - - - 0,0
21.06.2017 15:00:00 23,2 18,9 - - - - - 0,0
21.06.2017 14:00:00 21,6 18,2 - - - - - 0,0
21.06.2017 13:00:00 21,0 17,1 - - - - - 0,0
21.06.2017 12:00:00 22,3 18,7 - - - - - 0,0
21.06.2017 11:00:00 19,5 17,2 - - - - - 0,0
21.06.2017 10:00:00 19,0 17,7 19,0 - - N 3,3 0,0
21.06.2017 09:00:00 16,7 15,7 - - - - - 1,4
21.06.2017 08:00:00 16,8 15,0 - - - - - 0,8
21.06.2017 07:00:00 17,2 15,3 - - - - - 0,0
21.06.2017 06:00:00 16,5 15,3 - - - - - 0,0
21.06.2017 05:00:00 16,2 15,0 - - - - - 0,0
21.06.2017 04:00:00 16,2 15,0 - - - - - 0,0
21.06.2017 03:00:00 15,7 14,3 - - - - - 0,0
21.06.2017 02:00:00 16,2 13,9 - - - - - 0,0
21.06.2017 01:00:00 16,3 14,2 - - - - - 0,0
21.06.2017 00:00:00 15,4 13,9 - - - - - 0,0
20.06.2017 23:00:00 15,8 14,2 - - - - - 0,0
20.06.2017 22:00:00 16,3 13,9 - - - - - 0,0
20.06.2017 21:00:00 18,6 14,1 - - - - - 0,0
20.06.2017 20:00:00 21,8 13,3 - - - - - 0,0
20.06.2017 19:00:00 22,0 13,6 - - - - - 0,0
20.06.2017 18:00:00 22,4 14,5 - - - - - 0,0
20.06.2017 17:00:00 22,9 15,1 - - - - - 0,0
20.06.2017 16:00:00 22,5 14,3 - - - - - 0,0
20.06.2017 15:00:00 23,3 15,3 - - - - - 0,0
20.06.2017 14:00:00 23,6 16,7 - - - - - 0,0
20.06.2017 13:00:00 22,3 14,9 - - - - - 0,0
20.06.2017 12:00:00 21,2 14,4 - - - - - 0,0
20.06.2017 11:00:00 21,0 15,3 - - - - - 0,0
20.06.2017 10:00:00 18,9 15,5 19,0 - - N 45 0,0
20.06.2017 09:00:00 16,4 14,8 - - - - - 0,0
20.06.2017 08:00:00 13,3 12,4 - - - - - 0,0
20.06.2017 07:00:00 12,5 11,6 - - - - - 0,0
20.06.2017 06:00:00 12,9 11,8 - - - - - 0,0
20.06.2017 05:00:00 13,1 12,0 - - - - - 0,0
20.06.2017 04:00:00 13,4 12,4 - - - - - 0,0
20.06.2017 03:00:00 12,8 11,6 - - - - - 0,0
20.06.2017 02:00:00 12,2 11,2 - - - - - 0,0
20.06.2017 01:00:00 12,4 11,3 - - - - - 0,0
20.06.2017 00:00:00 13,5 11,4 - - - - - 0,0
19.06.2017 23:00:00 15,1 11,8 - - - - - 0,0
19.06.2017 22:00:00 16,8 12,6 - - - - - 0,0
19.06.2017 21:00:00 18,4 13,1 - - - - - 0,0
19.06.2017 20:00:00 20,8 13,9 - - - - - 0,0
19.06.2017 19:00:00 21,4 14,9 - - - - - 0,0
19.06.2017 18:00:00 20,9 15,0 - - - - - 0,0
19.06.2017 17:00:00 21,6 14,5 - - - - - 0,0
19.06.2017 16:00:00 22,0 14,5 - - - - - 0,0
19.06.2017 15:00:00 22,0 14,8 - - - - - 0,0
19.06.2017 14:00:00 21,5 13,4 - - - - - 0,0
19.06.2017 13:00:00 21,7 13,8 - - - - - 0,0
19.06.2017 12:00:00 21,3 15,7 - - - - - 0,0
19.06.2017 11:00:00 20,2 14,7 - - - - - 0,0
19.06.2017 10:00:00 20,8 16,3 20,8 55 30 N 15 0,0
19.06.2017 09:00:00 18,9 15,7 - - - - - 0,0
19.06.2017 08:00:00 15,3 15,0 - - - - - 0,0
19.06.2017 07:00:00 11,6 11,3 - - - - - 0,0
19.06.2017 06:00:00 10,2 9,9 - - - - - 0,0
19.06.2017 05:00:00 10,0 9,7 - - - - - 0,0
19.06.2017 04:00:00 9,2 8,8 - - - - - 0,0
19.06.2017 03:00:00 9,3 8,7 - - - - - 0,0
19.06.2017 02:00:00 9,9 9,2 - - - - - 0,0
19.06.2017 01:00:00 10,8 9,9 - - - - - 0,0
19.06.2017 00:00:00 11,5 10,4 - - - - - 0,0
18.06.2017 23:00:00 12,7 10,8 - - - - - 0,0

tt = temperature
td = dewpoint
tt 5cm = temperature 5cm
ff = wind speed
dd = wind direction
vv = visibility
rr = precipitation

Next stations